Jackpot

Texas Poker Multi Jackpot System

Kini Telah hadir Jackpot SUPER ROYAL FLUSH

Kini Telah hadir Jackpot 2000 (khusus table VIP keatas).

Ikutilah global jackpot yang tersedia di system kami, dengan system jackpot terbaru dan pertama di indonesia, anda dapat membeli jackpot dengan harga 100 rupiah saja dan menangkan hadiahnya hingga puluhan juta rupiah.

Jackpot bukanlah suatu keharusan untuk dibeli, namun kami memberikan suatu fitur tambahan untuk member tercinta dari www.royal303.com.

Terdapat tiga pilihan harga jackpot yang bisa anda beli yaitu :100,500,1000 dan 2000(khusus table VIP Keatas) rupiah.

Hadiah dari Multi jackpot system www.royal303.com

  1. full house x 10 harga jackpot yang anda beli.
      (contoh:anda membeli 1000 maka:1000 X10 = 10.000)
  2. four of kind x 250 harga jackpot yang anda beli
      (contoh:anda membeli 1000 maka:1000 X250 = 250.000)
  3. Straight flush x 1200
      (contoh:anda membeli 1000 maka:1000 X1200 = 1.200.000)
  4. Royal flush x 10000 harga jackpot yang anda beli
      (contoh:anda membeli 1000 maka:1000 X10000 = 10.000.000)
  5. SUPER ROYAL FLUSH x 30000 harga jackpot yang anda beli
      (contoh:anda membeli 1000 maka:1000 X30000 = 30.000.000)

Kondisi kartu

  1. full house adalah kondisi kartu dimana kartu anda dan kartu tengah dengan total 7 kartu bisa mendapatkan nilai 5 kartu dengan kombinasi 1 tris(three of kind) dan 1 pair, contoh 3 kartu 10 dan 2 kartu 5
  2. Four of kind adalah kondisi kartu dimana kartu anda dan kartu tengah dengan total 7 kartu bisa mendapatkan nilai 5 kartu dengan kombinasi 4 kartu yang sama jumlah dan 1 kartu apapun juga contoh anda mendapatkan 4 buah kartu angka 3 dan 1 kartu apapun.
  3. Staright flush adalah kondisi kartu dimana kartu anda dan kartu tengah dengan total 7 kartu bisa mendapatkan nilai 5 kartu dengan kombinasi seri / staright dengan kembang yang sama contoh : urutan kartu dari angka 5, 6, 7, 8 , 9 10 dengan kembang yg sama misalnya as hati
  4. Royal flush adalah kondisi kartu dimana kartu anda dan kartu tengah dengan total 7 kartu bisa mendapatkan nilai 5 kartu dengan kombinasi seri / staright dengan kembang yang sama tetapi kartu tersebut haruslah dimulai dari 10. contoh 10, Queen, Jack, King dan aces dengan kembang yang sama
  5. Super Royal flush adalah kondisi kartu dimana Kedua kartu anda digabung dengan 3 kartu pertama meja haruslah royal flush. contoh kartu anda 10,Queen kembang sama dan 3 kartu pertama meja adalah Jack, King dan aces dengan kembang yang sama

Demikian adalah penjelasan dari Multi Jackpot www.royal303.com terima kasih dan selamat bermain salam hoki dari kami

Texas Poker Jackpot Winner

TOP SUPER ROYAL FLUSH
No.TanggalNamaPriceWin
122/09 02:24TAUN101Super Royal flush30,000,000
221/09 14:11ROYALJOZZSuper Royal flush60,000,000
321/09 13:43BA_ATIYOSuper Royal flush6,000,000
421/09 12:23B8EKCBJIYMSuper Royal flush3,000,000
521/09 08:32TUPO25Super Royal flush3,000,000
TOP ROYAL FLUSH
No.TanggalNamaPriceWin
122/09 02:26NEGREANURoyal flush2,000,000
222/09 02:12HPZB6QZ1ZNRoyal flush2,000,000
322/09 01:56KUPRAANTORoyal flush10,000,000
422/09 01:56B18BANG17460Royal flush10,000,000
522/09 01:51W1D2345Royal flush1,000,000
TOP STRAIGHT FLUSH
No.TanggalNamaPriceWin
122/09 02:26C4CFE237Straight Flush240,000
222/09 02:26CHO2Straight Flush60,000
322/09 02:24WINJIP9999Straight Flush240,000
422/09 02:21BADHOT20Straight Flush1,200,000
522/09 02:20PRASE888Straight Flush120,000
LATEST JACKPOT
No.TanggalNamaPriceWin
122/09 02:28WOMSUY96Full House2,000
222/09 02:28FOKUSFAIRAFull House20,000
322/09 02:28TED39Full House5,000
422/09 02:28HILUX12Full House20,000
522/09 02:28FREDELLA99Full House5,000
622/09 02:28D3W012Full House10,000
722/09 02:28HOKKY89Full House1,000
822/09 02:28R240916VFull House1,000
922/09 02:28JPGALAKFour Of A Kind250,000
1022/09 02:28BETA234Full House10,000
1122/09 02:28RERZ11Full House20,000
1222/09 02:28BHOPIZZ234Full House10,000
1322/09 02:28DIAN000889Full House2,000
1422/09 02:28D3L0V3Full House2,000
1522/09 02:28MCPFull House2,000
1622/09 02:28FB7EDD57Full House2,000
1722/09 02:28MERCY_Full House2,000
1822/09 02:28PRWTFull House10,000
1922/09 02:28F11CA822Full House1,000
2022/09 02:27MBAHUBANFull House10,000
2122/09 02:27DIAMOND99Full House2,000
2222/09 02:27ALANG00Full House5,000
2322/09 02:27LYNIESFull House2,000
2422/09 02:27S0EHART0_RFull House2,000
2522/09 02:27PD4DCANTIKA999Four Of A Kind250,000
2622/09 02:27CD3DFull House5,000
2722/09 02:27MAMANPOKERFull House10,000
2822/09 02:27MUT86Four Of A Kind500,000
2922/09 02:27PALALOLELOFull House1,000
3022/09 02:27BUZZ17Full House5,000
3122/09 02:27KUCIYOSE00Full House5,000
3222/09 02:27DWBTIE0683Full House10,000
3322/09 02:27PEJUANGSUSFull House5,000
3422/09 02:27IEA904WC46Full House10,000
3522/09 02:27DEYAN26Full House5,000
3622/09 02:27ORGBOGORFull House1,000
3722/09 02:27ESCOBARFour Of A Kind250,000
3822/09 02:27DRUYKIFull House2,000
3922/09 02:27ARI03WSFull House1,000
4022/09 02:27B992304EFull House10,000
4122/09 02:27IRISH11Full House2,000
4222/09 02:27NSTCFull House2,000
4322/09 02:27RHANTI21Full House5,000
4422/09 02:27KARAK52Full House5,000
4522/09 02:27GEGER32Full House1,000
4622/09 02:27INDRIPURBAFull House10,000
4722/09 02:27BANYAKUANGFull House10,000
4822/09 02:27MLC09Four Of A Kind125,000
4922/09 02:27KITTI03Full House2,000
5022/09 02:27L1ANK_T41Full House2,000

Domino Multi Jackpot System

Ikutilah global jackpot yang tersedia di system kami, dengan system jackpot terbaru dan pertama di indonesia, anda dapat membeli jackpot dengan harga 100 rupiah saja dan menangkan hadiahnya hingga puluhan juta rupiah.

Jackpot bukanlah suatu keharusan untuk dibeli, namun kami memberikan suatu fitur tambahan untuk member tercinta dari www.royal303.com.

Terdapat tiga pilihan harga jackpot yang bisa anda beli yaitu :100,500 dan 1000 rupiah.

Hadiah dari Multi jackpot system www.royal303.com

  1. Murni Kecil x 50 harga jackpot yang anda beli.
      (contoh:anda membeli 1000 maka:1000 X 50 = 50.000)
  2. Murni Besar x 50 harga jackpot yang anda beli
      (contoh:anda membeli 1000 maka:1000 X 50 = 50.000)
  3. BALAK x 100 harga jackpot yang anda beli
      (contoh:anda membeli 1000 maka:1000 X 100 = 100.000)
  4. ENAM DEWA x 6666 harga jackpot yang anda beli
      (contoh:anda membeli 1000 maka:1000 X 6666 = 6.666.000)

Demikian adalah penjelasan dari Multi Jackpot www.royal303.com terima kasih dan selamat bermain salam hoki dari kami

Domino Jackpot Winner

TOP ENAM DEWA
No.TanggalNamaPriceWin
122/09 01:09WISMA92murni enam3,333,000
222/09 01:08ABAY888888murni enam3,333,000
322/09 00:44AMSEO99murni enam3,333,000
422/09 00:43DYCK22murni enam6,666,000
521/09 23:35TEMPE444murni enam666,600
TOP BALAK
No.TanggalNamaPriceWin
122/09 02:27FAC8927Ebalak50,000
222/09 02:22DYCK22balak100,000
322/09 02:21FRANS48balak100,000
422/09 02:21KALVENObalak100,000
522/09 02:19YOPI45balak50,000
LATEST JACKPOT
No.TanggalNamaPriceWin
122/09 02:28GEGER057murni kecil50,000
222/09 02:27FAC8927Ebalak50,000
322/09 02:27BERNICE23murni besar50,000
422/09 02:26GUS13murni kecil50,000
522/09 02:25TELO888murni besar50,000
622/09 02:25HENDRIK6murni besar50,000
722/09 02:25GENK990murni kecil5,000
822/09 02:24JHELIDRINXmurni besar50,000
922/09 02:23PANGKAS001murni besar5,000
1022/09 02:23B78GARUDA12494murni besar5,000
1122/09 02:23AMSEO99murni besar25,000
1222/09 02:23E380B203murni besar5,000
1322/09 02:22EWENCOOL77murni besar25,000
1422/09 02:22DYCK22balak100,000
1522/09 02:21DB88C835murni besar25,000
1622/09 02:21ACIL66murni kecil50,000
1722/09 02:21FRANS48balak100,000
1822/09 02:21YUGHA_77murni besar25,000
1922/09 02:21KALVENObalak100,000
2022/09 02:21PLOSO99murni kecil25,000
2122/09 02:21RIYANKY29murni besar5,000
2222/09 02:21IW4N98murni besar5,000
2322/09 02:20PBWHOKI5murni besar25,000
2422/09 02:20TOOPENGmurni besar25,000
2522/09 02:19ADEKBDmurni besar25,000
2622/09 02:19YOPI45balak50,000
2722/09 02:19MOBMAR72balak100,000
2822/09 02:19JANUARY20balak50,000
2922/09 02:18URANUSmurni kecil5,000
3022/09 02:18TEROBOS_85murni besar5,000
3122/09 02:18JONKUR02murni besar25,000
3222/09 02:18UDUZ22murni besar50,000
3322/09 02:18HAMPURA11murni besar50,000
3422/09 02:17KUSUMA1990murni kecil25,000
3522/09 02:16SURANDILmurni besar50,000
3622/09 02:14ZAC779murni besar25,000
3722/09 02:13A2299046murni kecil5,000
3822/09 02:13ITEM12murni besar5,000
3922/09 02:13LONTAR50murni besar25,000
4022/09 02:12PIT99murni besar50,000
4122/09 02:12J3NGK0L1Nmurni besar50,000
4222/09 02:12Z03LF1K4Rbalak100,000
4322/09 02:11MAKMUR_999murni besar50,000
4422/09 02:11A3189585balak10,000
4522/09 02:11LUTHFI99murni kecil25,000
4622/09 02:10NANGDOYmurni kecil25,000
4722/09 02:10WAHYU7326balak100,000
4822/09 02:10ERMAWA505murni besar50,000
4922/09 02:10MASYUDSSmurni kecil50,000
5022/09 02:09ALASAN11murni besar50,000

Ceme Multi Jackpot System

Jackpot dilihat dari gabungan kartu pemain dengan kartu bandar. Bandar harus membeli jackpot sebanyak jumlah player yang sedang duduk. Sebagai contoh bila terdapat 3 pemain duduk bermain, dan bandar memutuskan untuk membeli jackpot Rp 1.000, maka pada periode tersebut bandar akan membeli jackpot sebanyak 3xRp1.000 = Rp3.000.

Jackpot bukanlah suatu keharusan untuk dibeli, namun kami memberikan suatu fitur tambahan untuk member tercinta dari www.royal303.com.

Terdapat tiga pilihan harga jackpot yang bisa anda beli yaitu :100,500 dan 1000 rupiah.

Hadiah dari Multi jackpot system www.royal303.com

  1. Murni Kecil x 50 harga jackpot yang anda beli.
      (contoh:anda membeli 1000 maka:1000 X 50 = 50.000)
  2. Murni Besar x 50 harga jackpot yang anda beli
      (contoh:anda membeli 1000 maka:1000 X 50 = 50.000)
  3. BALAK x 200 harga jackpot yang anda beli
      (contoh:anda membeli 1000 maka:1000 X 200 = 200.000)
  4. ENAM DEWA x 6666 harga jackpot yang anda beli
      (contoh:anda membeli 1000 maka:1000 X 6666 = 6.666.000)

Demikian adalah penjelasan dari Multi Jackpot www.royal303.com terima kasih dan selamat bermain salam hoki dari kami

Ceme Jackpot Winner

TOP ENAM DEWA
No.TanggalNamaPriceWin
122/09 02:18SGANTENG76murni enam666,600
222/09 02:15FUUD1111murni enam666,600
322/09 01:13ALUCARD27murni enam6,666,000
422/09 01:12MRET27murni enam3,333,000
522/09 00:58MARZO11murni enam6,666,000
TOP BALAK
No.TanggalNamaPriceWin
122/09 02:28REGARD47balak100,000
222/09 02:28ITEM84balak200,000
322/09 02:27TEKNO_IDbalak200,000
422/09 02:27GEBUKPKIbalak200,000
522/09 02:27NATALYA7balak200,000
LATEST JACKPOT
No.TanggalNamaPriceWin
122/09 02:28REGARD47balak100,000
222/09 02:28ITEM84balak200,000
322/09 02:28DWTTOPELmurni besar50,000
422/09 02:28CONGIIImurni besar5,000
522/09 02:27UCPWYXEMNQmurni kecil25,000
622/09 02:27JIMMY755murni besar50,000
722/09 02:27LAWAK88murni besar50,000
822/09 02:27TENGKYUmurni besar5,000
922/09 02:27PROFESSOR1murni kecil50,000
1022/09 02:27TEKNO_IDbalak200,000
1122/09 02:27GEBUKPKIbalak200,000
1222/09 02:27WAKYETmurni kecil5,000
1322/09 02:27ZITOmurni kecil50,000
1422/09 02:27BEGAL30murni kecil5,000
1522/09 02:27ISAN120murni besar5,000
1622/09 02:27ZIQRYmurni kecil25,000
1722/09 02:27NATALYA7balak200,000
1822/09 02:27KHOJAY987balak100,000
1922/09 02:26JAHIL89murni besar25,000
2022/09 02:26DONCOOLmurni kecil5,000
2122/09 02:26M_4RSELmurni besar5,000
2222/09 02:26DHAFFA99murni besar50,000
2322/09 02:26ADETEA81murni besar50,000
2422/09 02:26JIMZ77murni kecil50,000
2522/09 02:26JIMZ77balak200,000
2622/09 02:26LUHHbalak20,000
2722/09 02:26YUNANBAmurni besar25,000
2822/09 02:26DEDDY123murni besar50,000
2922/09 02:26AQAE77murni kecil50,000
3022/09 02:26DAKKENOmurni kecil50,000
3122/09 02:26KERMET123murni kecil25,000
3222/09 02:26BILLZKUYmurni besar50,000
3322/09 02:26HAFIS888murni besar50,000
3422/09 02:26GJKTUPOOmurni besar5,000
3522/09 02:25PROFESSOR1murni kecil50,000
3622/09 02:25AUH26murni kecil25,000
3722/09 02:25PROFESSOR1murni kecil50,000
3822/09 02:25HOKIHERI99murni kecil25,000
3922/09 02:25FNZFHQ87IVmurni kecil50,000
4022/09 02:25DHAFFA99balak200,000
4122/09 02:25PNL333murni besar25,000
4222/09 02:25KUPLE212murni kecil5,000
4322/09 02:25IDUYYYY23murni kecil25,000
4422/09 02:25MS06murni kecil50,000
4522/09 02:25SYZMEVALLYmurni kecil50,000
4622/09 02:24TUTURU12murni kecil5,000
4722/09 02:24IBNUSGTmurni besar25,000
4822/09 02:24NATALYA7murni kecil50,000
4922/09 02:24ROCKSTARSmurni kecil50,000
5022/09 02:24BOBY7474murni kecil25,000